Portsmouth, NH

7:03 PM EDT on October 17, 2017 (GMT -0400)
Pease International Tradeport

Weather History for KPSM - October, 2011

Change the Weather History Date:

Thursday, October 20, 2011

  Actual Average Record
Temperature  
Mean Temperature 60 °F -  
Max Temperature 67 °F 56 °F 76 °F (1984)
Min Temperature 53 °F 38 °F 27 °F (1988)
Degree Days  
Heating Degree Days 6    
Growing Degree Days 10 (Base 50)    
Moisture  
Dew Point 53 °F    
Average Humidity 89    
Maximum Humidity 100    
Minimum Humidity 55    
Precipitation  
Precipitation 0.64 in - - ()
Sea Level Pressure  
Sea Level Pressure 29.56 in    
Wind  
Wind Speed 14 mph (ENE)    
Max Wind Speed 22 mph    
Max Gust Speed 30 mph    
Visibility 6 miles    
Events Rain    
Averages and records for this station are not official NWS values.
T = Trace of Precipitation, MM = Missing Value Source: NWS Daily Summary

Daily Weather History Graph

Daily Weather History Graph

Search for Another Location

Airport or City:

Trip Planner

Search our weather history database for the weather conditions in past years. The results will help you decide how hot, cold, wet, or windy it might be!

Date:

Astronomy

Oct. 20, 2011 Rise Set
Actual Time 7:02 AM EDT 5:52 PM EDT
Civil Twilight 6:33 AM EDT 6:21 PM EDT
Nautical Twilight 6:00 AM EDT 6:54 PM EDT
Astronomical Twilight 5:27 AM EDT 7:27 PM EDT
Moon No Moon Rise 2:10 PM EDT (10/20)
Length of Visible Light 11h 48m
Length of Day
10h 50m
Last Quarter, 44% of the Moon is Illuminated
Oct 20
Last Quarter
Oct 26
New
Nov 2
First Quarter
Nov 10
Full
Nov 18
Last Quarter

Hourly Weather History & Observations

Time (EDT) Temp. Dew Point Humidity Pressure Visibility Wind Dir Wind Speed Gust Speed Precip Events Conditions
12:21 AM 53.6 °F 51.8 °F 94% 29.68 in 1.0 mi NNE 15.0 mph 23.0 mph N/A Rain Light Rain
12:47 AM 53.6 °F 51.8 °F 94% 29.65 in 2.0 mi NE 20.7 mph 29.9 mph N/A Rain Light Rain
12:55 AM 53.4 °F 52.3 °F 96% 29.65 in 2.0 mi NNE 15.0 mph 25.3 mph 0.01 in Rain Light Rain
1:13 AM 53.6 °F 51.8 °F 94% 29.65 in 3.0 mi NE 19.6 mph 25.3 mph N/A Rain Light Rain
1:42 AM 53.6 °F 51.8 °F 94% 29.64 in 2.0 mi NE 16.1 mph 26.5 mph N/A Rain Light Rain
1:55 AM 53.4 °F 52.2 °F 95% 29.62 in 3.0 mi NNE 16.1 mph 24.2 mph 0.07 in Rain Rain
2:55 AM 53.6 °F 52.2 °F 95% 29.57 in 1.5 mi NE 21.9 mph 29.9 mph 0.31 in Rain Heavy Rain
3:14 AM 53.6 °F 51.8 °F 94% 29.59 in 2.0 mi NE 17.3 mph 25.3 mph N/A Rain Light Rain
3:32 AM 53.6 °F 51.8 °F 94% 29.58 in 3.0 mi NE 16.1 mph 23.0 mph N/A Rain Light Rain
3:47 AM 53.6 °F 51.8 °F 94% 29.58 in 3.0 mi NNE 12.7 mph 21.9 mph N/A Rain Light Rain
3:55 AM 54.0 °F 52.5 °F 95% 29.58 in 3.0 mi NE 13.8 mph - 0.20 in Rain Light Rain
4:55 AM 54.1 °F 53.1 °F 96% 29.59 in 2.0 mi NE 16.1 mph 19.6 mph 0.04 in Rain Light Rain
5:20 AM 53.6 °F 53.6 °F 100% 29.58 in 6.0 mi NE 15.0 mph - N/A Rain Light Rain
5:55 AM 54.3 °F 52.9 °F 95% 29.58 in 7.0 mi NE 12.7 mph 20.7 mph 0.01 in   Light Drizzle
6:15 AM 55.4 °F 53.6 °F 94% 29.57 in 7.0 mi NNE 10.4 mph - N/A   Overcast
6:33 AM 53.6 °F 53.6 °F 100% 29.57 in 6.0 mi North 8.1 mph - N/A   Overcast
6:55 AM 54.3 °F 53.2 °F 96% 29.58 in 7.0 mi NNE 6.9 mph - 0.00 in   Overcast
7:55 AM 54.1 °F 53.2 °F 97% 29.57 in 5.0 mi NNE 10.4 mph - N/A   Overcast
8:55 AM 54.3 °F 53.4 °F 97% 29.54 in 10.0 mi NE 12.7 mph - N/A   Overcast
9:55 AM 55.6 °F 54.7 °F 97% 29.50 in 10.0 mi NE 11.5 mph - N/A   Overcast
10:55 AM 56.5 °F 55.6 °F 97% 29.52 in 2.0 mi NNE 10.4 mph - N/A   Overcast
11:03 AM 55.4 °F 55.4 °F 100% 29.50 in 0.8 mi NE 12.7 mph - N/A   Light Drizzle
11:55 AM 57.0 °F 56.7 °F 99% 29.49 in 0.8 mi NNE 8.1 mph - 0.00 in   Light Drizzle
12:40 PM 59.0 °F 59.0 °F 100% 29.47 in 1.5 mi Variable 3.5 mph - N/A   Light Drizzle
12:55 PM 59.5 °F 59.2 °F 99% 29.47 in 3.0 mi Calm Calm - 0.00 in   Overcast
1:26 PM 62.6 °F 60.8 °F 94% 29.46 in 10.0 mi Calm Calm - N/A   Mostly Cloudy
1:55 PM 63.9 °F 63.7 °F 99% 29.45 in 7.0 mi SE 8.1 mph - N/A   Mostly Cloudy
2:19 PM 64.4 °F 62.6 °F 94% 29.45 in 10.0 mi SSE 9.2 mph - N/A   Scattered Clouds
2:55 PM 66.0 °F 60.6 °F 83% 29.45 in 10.0 mi SSE 11.5 mph - N/A   Partly Cloudy
3:55 PM 66.7 °F 55.0 °F 66% 29.46 in 10.0 mi SSE 12.7 mph - N/A   Partly Cloudy
4:55 PM 65.7 °F 49.3 °F 55% 29.47 in 10.0 mi South 12.7 mph - N/A   Partly Cloudy
5:55 PM 61.3 °F 48.2 °F 62% 29.51 in 10.0 mi South 8.1 mph - N/A   Partly Cloudy
6:55 PM 59.7 °F 47.5 °F 64% 29.54 in 10.0 mi South 8.1 mph - N/A   Partly Cloudy
7:55 PM 58.5 °F 47.5 °F 67% 29.56 in 10.0 mi South 9.2 mph - N/A   Clear
8:55 PM 57.4 °F 46.8 °F 68% 29.58 in 10.0 mi SSW 11.5 mph 19.6 mph N/A   Clear
9:55 PM 56.5 °F 46.6 °F 69% 29.61 in 10.0 mi SSW 13.8 mph 19.6 mph N/A   Clear
10:55 PM 55.6 °F 46.9 °F 73% 29.62 in 10.0 mi SSW 10.4 mph - N/A   Partly Cloudy
11:55 PM 55.0 °F 46.6 °F 73% 29.64 in 10.0 mi SSW 9.2 mph - N/A   Scattered Clouds